Regional Weather Roundup
Issued by NWS

Home | Current Version | Previous Version | Text Only | Print | Product List | Glossary On
Versions: 1 2 3 4 5 6 7 8 9 10 11 12 13 14 15 16 17 18 19 20 21 22 23 24 25 26 27 28 29 30 31 32 33 34 35 36 37 38 39 40 41 42 43 44 45 46 47 48 49 50
505
ASUS43 KBIS 182210
RWRND

NORTH DAKOTA REGIONAL WEATHER ROUNDUP
NATIONAL WEATHER SERVICE BISMARCK ND
400 PM CST SUN FEB 18 2018

NOTE: "FAIR" INDICATES FEW OR NO CLOUDS BELOW 12,000 FEET WITH NO
SIGNIFICANT WEATHER AND/OR OBSTRUCTIONS TO VISIBILITY.


NDZ001>003-009>011-017-182300-
NORTHWEST NORTH DAKOTA

CITY           SKY/WX    TMP DP  RH WIND       PRES   REMARKS
WILLISTON      PTSUNNY    9  -1  64 N10       30.00R WCI  -5
MINOT          MOSUNNY   10   0  63 N14       29.95R WCI  -6
MINOT AFB      MOSUNNY   10   0  65 MISG      29.94R
$$

NDZ018>021-031>035-040>046-182300-
SOUTHWEST NORTH DAKOTA

CITY           SKY/WX    TMP DP  RH WIND       PRES   REMARKS
BISMARCK       LGT SNOW  12   7  80 N15       29.90R WCI  -4
DICKINSON      CLOUDY     8   0  69 N12       29.85R WCI  -7
GARRISON         N/A      9   1  70 N13G18    29.91R WCI  -7
HETTINGER ARPT CLOUDY     7   1  76 N22       29.84R HAZE    WCI -14
$$

NDZ004>008-012>016-024-026-027-054-182300-
NORTHEAST NORTH DAKOTA

CITY           SKY/WX    TMP DP  RH WIND       PRES   REMARKS
GRAND FORKS    CLOUDY    13   9  84 N21       29.88R BLWGSNOWWCI  -5
GRND FRKS AFB  CLOUDY    12   6  77 N24       29.88S BLWGSNOWWCI  -8
DEVILS LAKE    FAIR       9   3  77 N14       29.92R WCI  -7
$$

NDZ022-023-025-028>030-036>039-047>053-182300-
SOUTHEAST NORTH DAKOTA

CITY           SKY/WX    TMP DP  RH WIND       PRES   REMARKS
FARGO          PTSUNNY   17  13  84 N18G29    29.78R WCI   1
JAMESTOWN      LGT SNOW  13   8  81 N23       29.84R WCI  -6
$$





USA.gov is the U.S. government's official web portal to all federal, state and local government web resources and services.